TimeEST,TemperatureF,Dew PointF,Humidity,Sea Level PressureIn,VisibilityMPH,Wind Direction,Wind SpeedMPH,Gust SpeedMPH,PrecipitationIn,Events,Conditions,WindDirDegrees,DateUTC
12:15 AM,32.0,32.0,100,30.42,7.0,Calm,Calm,-,N/A,,Clear,0,2012-11-30 05:15:00
12:35 AM,32.0,32.0,100,30.42,4.0,Calm,Calm,-,N/A,,Clear,0,2012-11-30 05:35:00
12:55 AM,32.0,32.0,100,30.41,5.0,Calm,Calm,-,N/A,,Clear,0,2012-11-30 05:55:00
1:15 AM,32.0,32.0,100,30.41,5.0,Calm,Calm,-,N/A,,Clear,0,2012-11-30 06:15:00
1:35 AM,32.0,32.0,100,30.40,5.0,Calm,Calm,-,N/A,,Clear,0,2012-11-30 06:35:00
1:55 AM,32.0,32.0,100,30.41,4.0,Calm,Calm,-,N/A,,Clear,0,2012-11-30 06:55:00
2:15 AM,30.2,30.2,100,30.41,5.0,Calm,Calm,-,N/A,,Clear,0,2012-11-30 07:15:00
2:35 AM,32.0,32.0,100,30.40,5.0,Calm,Calm,-,N/A,,Clear,0,2012-11-30 07:35:00
2:55 AM,30.2,30.2,100,30.40,7.0,Calm,Calm,-,N/A,,Clear,0,2012-11-30 07:55:00
3:15 AM,30.2,30.2,100,30.40,5.0,Calm,Calm,-,N/A,,Clear,0,2012-11-30 08:15:00
3:35 AM,30.2,30.2,100,30.39,5.0,Calm,Calm,-,N/A,,Clear,0,2012-11-30 08:35:00
3:55 AM,30.2,30.2,100,30.38,5.0,Calm,Calm,-,N/A,,Clear,0,2012-11-30 08:55:00
4:15 AM,30.2,30.2,100,30.38,7.0,Calm,Calm,-,N/A,,Clear,0,2012-11-30 09:15:00
4:35 AM,30.2,30.2,100,30.39,5.0,Calm,Calm,-,N/A,,Clear,0,2012-11-30 09:35:00
4:55 AM,30.2,30.2,100,30.39,7.0,Calm,Calm,-,N/A,,Clear,0,2012-11-30 09:55:00
5:15 AM,30.2,30.2,100,30.39,5.0,Calm,Calm,-,N/A,,Clear,0,2012-11-30 10:15:00
5:35 AM,30.2,30.2,100,30.39,5.0,Calm,Calm,-,N/A,,Clear,0,2012-11-30 10:35:00
5:55 AM,30.2,30.2,100,30.39,5.0,Calm,Calm,-,N/A,,Clear,0,2012-11-30 10:55:00
6:15 AM,30.2,30.2,100,30.40,5.0,Calm,Calm,-,N/A,,Clear,0,2012-11-30 11:15:00
6:35 AM,30.2,30.2,100,30.40,5.0,Calm,Calm,-,N/A,,Clear,0,2012-11-30 11:35:00
6:55 AM,30.2,30.2,100,30.40,7.0,Calm,Calm,-,N/A,,Clear,0,2012-11-30 11:55:00
7:15 AM,30.2,30.2,100,30.40,5.0,Calm,Calm,-,N/A,,Clear,0,2012-11-30 12:15:00
7:35 AM,30.2,30.2,100,30.40,5.0,Calm,Calm,-,N/A,,Clear,0,2012-11-30 12:35:00
7:55 AM,32.0,32.0,100,30.41,5.0,Calm,Calm,-,N/A,,Clear,0,2012-11-30 12:55:00
8:15 AM,33.8,33.8,100,30.41,5.0,Calm,Calm,-,N/A,,Clear,0,2012-11-30 13:15:00
8:35 AM,39.2,35.6,87,30.41,5.0,NNE,3.5,-,N/A,,Clear,20,2012-11-30 13:35:00
8:55 AM,42.8,35.6,76,30.42,4.0,Calm,Calm,-,N/A,,Haze,0,2012-11-30 13:55:00
9:15 AM,44.6,37.4,76,30.43,5.0,Calm,Calm,-,N/A,,Haze,0,2012-11-30 14:15:00
9:35 AM,48.2,37.4,66,30.43,5.0,Calm,Calm,-,N/A,,Haze,0,2012-11-30 14:35:00
9:55 AM,51.8,35.6,54,30.43,5.0,Calm,Calm,-,N/A,,Haze,0,2012-11-30 14:55:00
10:15 AM,53.6,35.6,51,30.42,7.0,Calm,Calm,-,N/A,,Clear,0,2012-11-30 15:15:00
10:35 AM,55.4,35.6,47,30.42,5.0,ENE,3.5,-,N/A,,Haze,60,2012-11-30 15:35:00
10:55 AM,59.0,33.8,39,30.42,5.0,Calm,Calm,-,N/A,,Haze,0,2012-11-30 15:55:00
11:15 AM,59.0,32.0,36,30.41,7.0,Calm,Calm,-,N/A,,Clear,0,2012-11-30 16:15:00
11:35 AM,59.0,32.0,36,30.40,7.0,Calm,Calm,-,N/A,,Clear,0,2012-11-30 16:35:00
11:55 AM,60.8,32.0,34,30.38,7.0,Calm,Calm,-,N/A,,Clear,0,2012-11-30 16:55:00
12:15 PM,62.6,32.0,32,30.37,7.0,Calm,Calm,-,N/A,,Clear,0,2012-11-30 17:15:00
12:35 PM,62.6,33.8,34,30.36,7.0,Calm,Calm,-,N/A,,Clear,0,2012-11-30 17:35:00
12:55 PM,62.6,33.8,34,30.35,7.0,Calm,Calm,-,N/A,,Clear,0,2012-11-30 17:55:00
1:15 PM,62.6,35.6,37,30.34,7.0,Calm,Calm,-,N/A,,Clear,0,2012-11-30 18:15:00
1:35 PM,62.6,35.6,37,30.34,7.0,Calm,Calm,-,N/A,,Clear,0,2012-11-30 18:35:00
1:55 PM,64.4,37.4,37,30.33,7.0,Calm,Calm,-,N/A,,Clear,0,2012-11-30 18:55:00
2:15 PM,64.4,37.4,37,30.32,7.0,NNE,3.5,-,N/A,,Scattered Clouds,30,2012-11-30 19:15:00
2:35 PM,64.4,39.2,40,30.32,7.0,Calm,Calm,-,N/A,,Scattered Clouds,0,2012-11-30 19:35:00
2:55 PM,64.4,39.2,40,30.32,7.0,Calm,Calm,-,N/A,,Scattered Clouds,0,2012-11-30 19:55:00
3:15 PM,64.4,41.0,42,30.32,5.0,Calm,Calm,-,N/A,,Haze,0,2012-11-30 20:15:00
3:35 PM,62.6,39.2,42,30.32,5.0,Calm,Calm,-,N/A,,Haze,0,2012-11-30 20:35:00
3:55 PM,62.6,41.0,45,30.32,7.0,Calm,Calm,-,N/A,,Clear,0,2012-11-30 20:55:00
4:15 PM,60.8,42.8,52,30.33,7.0,SE,4.6,-,N/A,,Scattered Clouds,140,2012-11-30 21:15:00
4:35 PM,59.0,42.8,55,30.33,7.0,SE,3.5,-,N/A,,Scattered Clouds,130,2012-11-30 21:35:00
4:55 PM,59.0,42.8,55,30.33,7.0,Calm,Calm,-,N/A,,Clear,0,2012-11-30 21:55:00
5:15 PM,55.4,44.6,67,30.33,5.0,Calm,Calm,-,N/A,,Haze,0,2012-11-30 22:15:00
5:35 PM,51.8,44.6,76,30.33,10.0,Calm,Calm,-,N/A,,Clear,0,2012-11-30 22:35:00
5:55 PM,50.0,44.6,82,30.34,7.0,Calm,Calm,-,N/A,,Clear,0,2012-11-30 22:55:00
6:15 PM,48.2,44.6,87,30.33,7.0,Calm,Calm,-,N/A,,Clear,0,2012-11-30 23:15:00
6:35 PM,46.4,44.6,93,30.34,7.0,Calm,Calm,-,N/A,,Clear,0,2012-11-30 23:35:00
6:55 PM,44.6,42.8,93,30.34,7.0,Calm,Calm,-,N/A,,Clear,0,2012-11-30 23:55:00
7:15 PM,44.6,44.6,100,30.34,7.0,Calm,Calm,-,N/A,,Clear,0,2012-12-01 00:15:00
7:35 PM,42.8,42.8,100,30.35,7.0,Calm,Calm,-,N/A,,Clear,0,2012-12-01 00:35:00
7:55 PM,42.8,42.8,100,30.34,7.0,Calm,Calm,-,N/A,,Clear,0,2012-12-01 00:55:00
8:15 PM,42.8,42.8,100,30.34,7.0,Calm,Calm,-,N/A,,Clear,0,2012-12-01 01:15:00
8:35 PM,41.0,41.0,100,30.34,7.0,Calm,Calm,-,N/A,,Clear,0,2012-12-01 01:35:00
8:55 PM,41.0,41.0,100,30.34,5.0,Calm,Calm,-,N/A,,Clear,0,2012-12-01 01:55:00
9:15 PM,41.0,41.0,100,30.35,7.0,Calm,Calm,-,N/A,,Clear,0,2012-12-01 02:15:00
9:35 PM,41.0,41.0,100,30.35,7.0,Calm,Calm,-,N/A,,Clear,0,2012-12-01 02:35:00
10:15 PM,41.0,41.0,100,30.34,5.0,Calm,Calm,-,N/A,,Clear,0,2012-12-01 03:15:00
10:35 PM,41.0,41.0,100,30.35,5.0,Calm,Calm,-,N/A,,Clear,0,2012-12-01 03:35:00
10:55 PM,39.2,39.2,100,30.35,7.0,Calm,Calm,-,N/A,,Clear,0,2012-12-01 03:55:00
11:15 PM,41.0,41.0,100,30.34,7.0,Calm,Calm,-,N/A,,Clear,0,2012-12-01 04:15:00
11:35 PM,39.2,39.2,100,30.35,5.0,Calm,Calm,-,N/A,,Clear,0,2012-12-01 04:35:00